Terug naar catalogus

FENGYUN 1C DEB

ActiefSSO
NORAD 29849·DEBRIS·🇨🇳 China

Gelanceerd May 10, 1999 vanaf Taiyuan Satellite Launch Center

Loading…

Volgende Passages (komende 24 uur)

TLE

VersSource: Space-Track

Epoch: Sep 14, 2026, 11:14 UTC

1 29849U 99025ET  26257.46844015  .00001196  00000-0  73919-3 0  9990
2 29849  99.0022 344.9580 0079261 356.0272  62.3829 14.05740159  2434

Volg FENGYUN 1C DEB in realtime met AllMySat

Download on the App Store